Location: Newark
(25.7507°S, 31.4676°E)
Time: 11:36:26
(UTC+00:00)

Hubble Space Telescope - Pass Details

Date: 29 January 2020
Orbit: 536 x 540 km, 28.5° (Epoch: 24 February)

Event Time Altitude Azimuth Distance (km) Brightness Sun altitude
Rises 19:24:35 0° 258° (WSW) 2,694 5.2 -31.1°
Reaches altitude 10° 19:26:51 10° 255° (WSW) 1,801 4.1 -31.5°
Enters shadow 19:28:14 20° 252° (WSW) 1,277 3.2 -31.7°
